This demonstration page uses our WeatherBlox Daily Observations layout. Learn more.

Left ArrowRight Arrow

31.31129, -92.44514

Hourly Observations for October 28, 2015

Temp ( °F °C ) Dew Point ( °F °C ) Humidity (%) Winds ( mph kmh ) Pressure ( in mb ) Visibility ( mi km ) Precip ( " mm )
12:53 am 00:53 Clear with Mist and Fog 60 15.6 60 15.6 100 100 Calm 29.81 1010 4 6 0.00 0.00
1:53 am 01:53 Clear with Mist and Fog 59 15 59 15 100 100 Calm 29.81 1010 3 5 0.00 0.00
2:11 am 02:11 Clear with Mist and Fog 58 14.4 58 14.4 100 100 ESE 3 6 29.80 1009 3 4 0.00 0.00
2:20 am 02:20 Clear with Mist and Fog 58 14.4 58 14.4 100 100 SE 3 6 29.80 1009 4 6 0.00 0.00
2:44 am 02:44 Clear with Mist and Fog 57 13.9 57 13.9 100 100 SSE 3 6 29.80 1009 2 3 0.00 0.00
2:53 am 02:53 Clear with Mist and Fog 57 13.9 57 13.9 100 100 SE 5 7 29.82 1010 2 3 0.00 0.00
3:05 am 03:05 Clear with Mist and Fog 57 13.9 57 13.9 100 100 SSE 5 7 29.80 1009 3 5 0.00 0.00
3:13 am 03:13 Clear with Mist and Fog 57 13.9 57 13.9 100 100 SSE 5 7 29.80 1009 3 4 0.00 0.00
3:25 am 03:25 Clear with Mist and Fog 57 13.9 57 13.9 100 100 SE 5 7 29.80 1009 4 6 0.00 0.00
3:53 am 03:53 Clear with Mist and Fog 57 13.9 57 13.9 100 100 ESE 3 6 29.81 1010 6 10 0.00 0.00
4:53 am 04:53 Clear with Mist and Fog 56 13.3 56 13.3 100 100 SE 5 7 29.81 1009 5 8 0.00 0.00
5:53 am 05:53 Clear with Mist and Fog 56 13.3 56 13.3 100 100 SE 6 9 29.81 1010 6 10 0.00 0.00
6:26 am 06:26 Mostly Cloudy with Mist and Fog 56 13.3 56 13.3 100 100 SE 6 9 29.80 1009 4 6 0.00 0.00
6:53 am 06:53 Cloudy with Mist and Fog 57 13.9 57 13.9 100 100 SE 5 7 29.81 1009 6 10 0.00 0.00
7:00 am 07:00 Cloudy with Mist and Fog 57 13.9 57 13.9 100 100 SE 5 7 29.80 1009 6 10 0.00 0.00
7:32 am 07:32 Cloudy with Mist and Fog 58 14.4 58 14.4 100 100 S 5 7 29.80 1009 2 3 0.00 0.00
7:44 am 07:44 Cloudy with Mist and Fog 59 15 59 15 100 100 SSE 3 6 29.80 1009 1 1 0.00 0.00
7:53 am 07:53 Cloudy with Fog 59 15 59 15 100 100 S 5 7 29.82 1010 1 1 0.00 0.00
8:15 am 08:15 Cloudy with Mist and Fog 60 15.6 60 15.6 100 100 SE 3 6 29.80 1009 2 2 0.00 0.00
8:41 am 08:41 Mostly Cloudy with Mist and Fog 62 16.7 62 16.7 100 100 SSE 6 9 29.83 1010 3 4 0.00 0.00
8:45 am 08:45 Partly Cloudy with Mist and Fog 62 16.7 62 16.7 100 100 SSE 6 9 29.83 1010 3 5 0.00 0.00
8:53 am 08:53 Partly Cloudy with Mist and Fog 62 16.7 62 16.7 100 100 SSE 6 9 29.83 1010 3 5 0.00 0.00
9:16 am 09:16 Mostly Cloudy with Mist and Fog 63 17.2 63 17.2 100 100 SSE 6 9 29.83 1010 5 8 0.00 0.00
9:53 am 09:53 Mostly Cloudy 66 18.9 65 18.3 96 96 S 9 15 29.83 1010 8 13 0.00 0.00
10:00 am 10:00 Sunny 67 19.4 65 18.3 93 93 SSE 9 15 29.83 1010 9 14 0.00 0.00
10:53 am 10:53 Mostly Sunny 73 22.8 67 19.4 81 81 SSW 12 19 29.82 1010 10 16 0.00 0.00
11:53 am 11:53 Sunny 77 25 66 18.9 69 69 SSW 13 20 29.80 1009 10 16 0.00 0.00
12:53 pm 12:53 Sunny 80 26.7 65 18.3 60 60 SSW 18 30 29.78 1008 10 16 0.00 0.00
1:53 pm 13:53 Sunny 82 27.8 63 17.2 53 53 SSW 20 31 29.73 1007 10 16 0.00 0.00
2:53 pm 14:53 Sunny 84 28.9 62 16.7 48 48 SSW 13 20 29.71 1006 10 16 0.00 0.00
3:53 pm 15:53 Sunny 84 28.9 62 16.7 48 48 SW 12 19 29.71 1006 10 16 0.00 0.00
4:53 pm 16:53 Sunny 82 27.8 61 16.1 49 49 WSW 12 19 29.71 1006 10 16 0.00 0.00
5:53 pm 17:53 Sunny 80 26.7 61 16.1 52 52 W 10 17 29.72 1006 10 16 0.00 0.00
6:53 pm 18:53 Clear 73 22.8 61 16.1 66 66 WNW 12 19 29.74 1007 10 16 0.00 0.00
7:53 pm 19:53 Clear 71 21.7 60 15.6 68 68 WNW 9 15 29.77 1008 10 16 0.00 0.00
8:53 pm 20:53 Clear 68 20 60 15.6 76 76 NW 8 13 29.80 1009 10 16 0.00 0.00
9:53 pm 21:53 Clear 65 18.3 60 15.6 84 84 Calm 29.82 1010 10 16 0.00 0.00
10:53 pm 22:53 Clear 65 18.3 61 16.1 87 87 Calm 29.84 1010 9 14 0.00 0.00
11:53 pm 23:53 Clear 62 16.7 60 15.6 93 93 Calm 29.84 1010 8 13 0.00 0.00

Powered by AerisWeather